Location: Unspecified
(0.0000°N, 0.0000°E)
Time: 19:33:17
(UTC+00:00)

ATLAS 5 CENTAUR DEB - Pass Details

Date: 14 March 2026
Orbit: 7294 x 36414 km, 19.5° (Epoch: 14 February)

Event Time Altitude Azimuth Distance (km) Brightness Sun altitude
Rises 10:02:18 0° 290° (WNW) 14,433 ? 58.2°
Reaches altitude 10° 10:12:34 10° 289° (WNW) 12,269 ? 60.7°
Maximum altitude 10:52:31 84° 202° (SSW) 7,773 ? 70.7°
Drops below altitude 10° 12:40:26 10° 111° (ESE) 25,347 ? 81.8°
Enters shadow 20:22:28 34° 80° (E) 31,188 ? -33.3°
Exits shadow 21:20:39 28° 74° (ENE) 25,938 ? -47.8°
Sets 22:34:34 0° 70° (ENE) 19,118 ? -66.3°
